Volver al catálogo

LEMUR 2 LANGER2SPACE

ActivoCienciaSSO
NORAD 63358·PAYLOAD·🇺🇸 United States

Lanzado Mar 26, 2025 desde Rocket Lab Launch Complex 1

Loading…

Próximos Pases (próximas 24 horas)

TLE

ActualizadoSource: Space-Track

Época: Sep 14, 2026, 09:42 UTC

1 63358U 25061H   26257.40480889  .00003491  00000-0  19093-3 0  9994
2 63358  97.5721 232.6312 0015216 314.4885  45.5102 15.14850194 81122

Sigue LEMUR 2 LANGER2SPACE en tiempo real con AllMySat

Download on the App Store